Погода в Сан-Хуан-де-лос-Моррос

Венесуэла     9°54′57″N   67°20′46″W
темп.,
°C
ветер,
м/с
пор.,
м/с
влажн.,
%
обл.,
%
осадки,
мм/ч
давл.,
гПа
погр.,
м
5 мая, ср
ср523:00+21с1293100 1.9 101672
02:00+21ссв1295100 3.4 101480
05:00+21всв1194100 0.2 101418
08:00+23с018339 0.2 1016352
11:00+26ю226784 0.9 10161173
14:00+25ююв2273100 6.3 1014845
17:00+24в1180100 6.7 101277
20:00+22ссв239098 9.5 101480
6 мая, чт
чт623:00+21ссв2391100 0.1 1015140
02:00+20ссв249299 0.9 1013165
05:00+20ссв239481 0.0 101484
08:00+22св127945 0.0 1015277
11:00+27ююв225999 0.2 10151294
14:00+27ююв2263100 2.8 10121104
17:00+25юв1172100 3.9 1011651
20:00+22ссв228787 6.4 101329
7 мая, пт
пт723:00+21ссв2292100 0.1 101565
02:00+20с239493 0.1 101378
05:00+19с229432 0.0 101359
08:00+22св1280100 0.0 1015262
11:00+27вюв226453 1.3 10141139
14:00+26юв226787 5.5 10121174
17:00+25юв127576 4.8 1012540
20:00+22юв0187100 9.5 101411
8 мая, сб
сб823:00+22ссв1185100 2.1 101515
02:00+21ссв118892 2.1 101322
05:00+20ссв119067 0.0 101422
08:00+23в1181100 0.0 1015218
11:00+27юв2267100 0.9 10151190
14:00+26юв126878 3.1 1012940
17:00+26вюв127055 1.8 1011796
20:00+22св1190100 5.9 101415
9 мая, вс
вс923:00+21ссв229091 0.7 101543
02:00+21ссв229299 0.8 101344
05:00+21вюв1192100 0.7 101429
08:00+22вюв118895 1.9 1016161
11:00+24юв3681100 3.1 1016934
14:00+21ююв2398100 9.8 1015262
17:00+21вюв1192100 1.5 1014199
20:00+21св119490 2.4 101528